Location: Ponte Samoggia
(44.5667°N, 11.1333°E)
Time: 23:07:32
(UTC+00:00)

USA 306 - Pass Details

Date: 26 May 2022
Orbit: 545 x 556 km, 54.0° (Epoch: 20 June)

Event Time Altitude Azimuth Distance (km) Brightness Sun altitude
Exits shadow 00:06:55 70° 91° (E) 592 2.9 -23.2°
Drops below altitude 10° 00:10:45 10° 57° (ENE) 1,844 6.1 -23.0°
Sets 00:13:00 0° 56° (NE) 2,745 7.1 -22.9°
